Location: Crescent
(42.8242°N, 73.7329°W)
Time: 17:24:20
(UTC+00:00)

Vanguard 1 Rocket - Pass Details

Date: 20 February 2026
Orbit: 653 x 4214 km, 34.3° (Epoch: 8 March)

Event Time Altitude Azimuth Distance (km) Brightness Sun altitude
Rises 21:13:22 0° 270° (W) 5,134 12.4 12.8°
Reaches altitude 10° 21:16:09 10° 266° (W) 4,493 12.4 12.3°
Maximum altitude 21:29:24 57° 192° (SSW) 3,442 10.8 10.2°
Drops below altitude 10° 21:52:27 10° 122° (ESE) 7,330 11.7 6.3°
Sets 21:58:40 0° 120° (ESE) 8,450 11.9 5.2°
